This is the latest recevied weather packets stored in our database for station/object IZ1UQG-1. If no packets are shown the sender has not sent any weather packets the latest 10 day(s).
| Time | Temp. | Humidity | Pressure | Rain* | Wind** | Luminosity | Snow |
|---|---|---|---|---|---|---|---|
| 1777419549 | 16.67° C | 77% | 1016.8 hPa | 144.27 mm | - | - | - |
| 1777419249 | 16.67° C | 77% | 1016.8 hPa | 212.09 mm | - | - | - |
| 1777418949 | 16.67° C | 77% | 1016.8 hPa | 231.65 mm | - | - | - |
| 1777418649 | 16.67° C | 77% | 1016.8 hPa | 206.25 mm | - | - | - |
| 1777418349 | 16.67° C | 77% | 1016.8 hPa | 159.77 mm | - | - | - |
| 1777418049 | 16.67° C | 77% | 1016.8 hPa | 215.65 mm | - | - | - |
| 1777417749 | 16.67° C | 77% | 1016.9 hPa | 209.55 mm | - | - | - |
| 1777417449 | 16.67° C | 77% | 1016.7 hPa | 214.63 mm | - | - | - |
| 1777417149 | 16.67° C | 77% | 1016.6 hPa | 122.94 mm | - | - | - |
| 1777416849 | 16.67° C | 77% | 1016.5 hPa | 203.2 mm | - | - | - |
| 1777416549 | 16.67° C | 77% | 1016.6 hPa | 176.78 mm | - | - | - |
| 1777416249 | 16.67° C | 77% | 1016.5 hPa | 189.23 mm | - | - | - |
| 1777415949 | 16.67° C | 77% | 1016.4 hPa | 122.43 mm | - | - | - |
| 1777415649 | 16.67° C | 77% | 1016.6 hPa | 151.38 mm | - | - | - |
| 1777415349 | 16.67° C | 77% | 1016.5 hPa | 156.72 mm | - | - | - |
| 1777415049 | 16.67° C | 77% | 1016.4 hPa | 164.85 mm | - | - | - |
| 1777414749 | 16.67° C | 77% | 1016.3 hPa | 129.79 mm | - | - | - |
| 1777414449 | 16.67° C | 77% | 1016.4 hPa | 144.78 mm | - | - | - |
| 1777414149 | 16.67° C | 77% | 1016.4 hPa | 127.51 mm | - | - | - |
| 1777413849 | 16.67° C | 77% | 1016.4 hPa | 159.26 mm | - | - | - |
| 1777413549 | 16.67° C | 77% | 1016.3 hPa | 128.27 mm | - | - | - |
| 1777413249 | 16.67° C | 77% | 1016.4 hPa | 190.25 mm | - | - | - |
| 1777412949 | 16.67° C | 77% | 1016.6 hPa | 192.28 mm | - | - | - |
| 1777412649 | 16.67° C | 76% | 1016.6 hPa | 203.71 mm | - | - | - |
| 1777412349 | 17.22° C | 76% | 1016.4 hPa | 201.17 mm | - | - | - |
* Rain latest hour (hover to see other rain measurements)
** Current wind speed in m/s (hover to see current wind gust speed)